User: anonymous   Login
Location: Middlebury
(44.0153°N, 73.1678°W)
Time: 08:45:38
(UTC-04:00)
Language:

DIWATA 2B (PO-101) - Orbit

View from above orbital plane
View from above orbital plane
View from above satellite
View from above satellite

Ground track
Ground track

The orbit data is extracted from the following two-line orbital elements,

1 43678U 18084H   24170.14445306  .00001415  00000-0  13390-3 0  9990
2 43678  98.0717 328.1606 0009786  35.1983 324.9882 14.95316476307065
Epoch (UTC): 18 June 2024 03:28:00
Eccentricity: 0.0009786
inclination: 98.0717°
perigee height: 574 km
apogee height: 588 km
right ascension of ascending node: 328.1606°
argument of perigee: 35.1983°
revolutions per day: 14.95316476
mean anomaly at epoch: 324.9882°
orbit number at epoch: 30706

The dashed part of the orbit path shows where the satellite is in the earth's shadow,  

DLR